Wind_Speed
32 32 32 30 29 28 27 27 26 25 25 25 25 24 23 22 21 20 19 19 17 17 16 15 15 15 14 14 14 14 13 12 12 12 12 11 11 10 10 10 10 10 10 9 8 8 8 8 8 8 8 8 8 8 8 8 8 7 7 6 6 6 6 6 5 5 4 3 2 2 1 2 2 3 5 6 6 6 6 6 6 6 5 4 3
30 31 32 32 31 30 29 29 28 27 26 26 26 25 25 24 23 22 21 20 19 18 17 16 16 15 15 15 14 14 14 13 13 12 12 12 12 11 10 10 11 11 11 10 9 8 7 7 7 8 8 8 9 8 8 8 8 8 7 7 7 6 6 6 5 5 5 4 4 4 4 3 2 2 3 5 6 6 7 6 6 6 6 4 3
29 30 30 31 32 31 31 30 29 28 27 27 27 27 27 26 25 24 23 22 21 20 18 17 17 16 16 16 15 15 15 14 13 13 12 13 13 12 11 11 12 12 11 11 10 9 8 7 7 7 8 8 8 8 8 8 8 8 8 8 8 7 7 7 6 6 6 5 5 6 6 5 5 4 4 4 5 6 7 7 6 6 6 5 5
28 29 30 31 32 31 31 31 30 30 29 28 28 28 28 28 27 26 25 24 23 22 20 19 18 17 17 17 17 16 16 16 15 13 13 13 14 13 13 12 12 13 12 11 10 10 9 8 7 7 7 7 7 7 7 7 8 8 8 8 9 9 9 8 8 7 6 6 6 6 6 5 5 5 5 5 5 6 6 7 7 7 8 7 6
28 29 30 32 32 32 32 32 31 31 30 30 30 31 30 29 29 28 27 26 25 24 23 21 20 19 18 18 18 18 17 17 16 15 14 14 15 15 14 14 14 14 13 12 11 10 9 9 8 8 7 7 6 6 6 6 6 6 6 7 8 9 9 9 9 8 7 7 6 6 6 5 5 6 6 6 6 6 7 7 7 8 9 9 9
27 28 30 32 33 33 33 33 32 32 32 32 32 32 32 31 30 30 29 28 28 27 25 23 22 21 21 21 20 19 19 18 17 16 15 15 15 16 16 15 15 15 15 14 12 11 10 10 9 9 8 8 7 6 5 5 4 4 4 5 6 7 8 8 8 8 8 7 7 7 8 7 7 6 6 7 7 7 7 7 7 8 9 10 11
27 26 27 29 32 34 35 34 34 34 33 34 34 34 33 33 32 32 31 30 30 29 27 26 24 24 23 23 22 21 20 19 18 17 16 15 16 17 17 17 16 16 16 15 14 13 11 11 11 10 9 9 8 7 6 5 5 4 4 4 4 4 4 5 5 6 7 7 8 9 9 9 10 9 8 8 8 8 8 7 7 8 9 10 11
28 27 27 27 28 32 35 37 36 35 35 35 35 34 34 34 34 33 32 31 31 31 29 28 27 26 25 24 24 23 22 21 20 19 17 16 17 18 18 18 18 17 17 16 15 14 13 12 12 12 11 10 9 8 8 7 7 6 6 5 5 5 4 4 4 5 5 6 7 8 8 9 10 10 9 9 9 9 9 9 9 8 8 9 10
31 31 30 29 29 30 33 36 37 37 37 36 36 35 35 34 34 34 33 32 32 32 31 30 29 28 27 26 25 25 24 23 21 21 20 19 19 19 19 20 20 19 18 17 16 16 15 14 14 13 12 11 10 9 9 8 8 7 7 7 7 7 6 6 6 6 6 6 7 7 8 8 9 9 9 9 9 9 10 10 11 10 9 9 9
33 33 32 32 32 31 31 33 36 38 39 38 38 37 36 35 34 34 33 33 33 33 32 31 31 30 29 28 27 26 26 25 24 23 23 22 21 21 21 21 22 21 21 20 18 18 17 16 16 15 14 13 12 11 10 9 9 8 7 7 7 7 8 8 8 8 8 8 9 9 9 9 10 9 9 8 8 9 10 11 12 11 10 9 10
35 35 34 35 35 34 32 32 33 36 39 40 40 39 38 36 35 34 34 34 34 34 33 32 32 31 30 29 29 28 27 27 26 27 27 25 24 23 23 23 23 23 23 22 21 21 20 19 18 17 16 15 14 13 11 11 10 10 8 7 7 7 8 8 9 9 9 9 10 11 11 12 12 11 11 10 9 8 10 11 13 13 12 10 10
36 36 37 38 37 36 34 33 32 32 36 39 41 41 40 39 37 35 35 35 35 34 34 33 33 32 31 31 30 30 29 28 29 29 29 28 27 26 26 25 25 25 25 24 24 23 23 22 20 19 18 18 17 15 13 13 12 12 10 9 8 8 8 8 8 9 9 9 9 11 12 12 13 12 12 12 11 10 10 12 13 15 15 14 12
38 39 40 40 40 38 36 34 32 31 32 35 38 41 41 41 40 39 38 37 36 35 34 34 33 33 32 32 31 30 30 30 30 31 31 30 30 29 28 27 27 26 26 26 26 26 25 24 23 21 21 21 20 18 16 16 15 14 13 11 10 10 9 9 10 10 9 9 10 11 11 11 11 12 11 11 11 12 12 12 13 14 16 17 16
41 42 42 40 39 38 36 34 32 31 31 32 34 37 39 40 41 41 41 40 38 37 36 35 34 33 33 32 32 31 31 31 31 32 32 32 32 31 30 29 28 27 26 26 27 27 27 27 25 24 24 23 22 21 20 19 19 17 16 14 13 13 12 12 12 12 12 11 11 12 12 12 12 12 12 11 12 12 13 13 14 14 16 17 17
42 40 39 38 37 36 36 36 35 33 31 31 32 34 36 39 40 41 41 42 41 40 39 38 36 34 33 33 32 32 32 31 32 32 33 33 33 33 32 31 29 28 27 27 27 28 28 28 28 27 26 25 25 24 24 23 22 20 18 17 16 16 15 15 16 16 15 14 13 13 14 14 14 14 14 14 14 15 15 15 15 16 17 17 17
43 39 37 37 37 37 38 38 37 35 34 33 33 33 34 36 39 40 41 41 41 40 40 40 38 36 35 34 33 33 33 32 32 33 33 34 34 33 33 31 30 29 28 28 28 28 29 29 30 30 29 28 27 27 27 26 25 23 22 20 20 19 18 18 19 20 19 18 16 16 16 16 16 17 17 17 18 18 17 17 18 18 19 18 19
45 43 40 38 38 39 39 39 37 36 36 35 35 34 34 35 37 39 40 40 40 39 39 40 40 38 37 36 34 33 33 33 33 33 34 35 34 33 32 31 30 29 29 29 29 28 28 29 30 31 31 30 29 30 30 29 28 26 25 24 23 22 21 22 22 23 22 21 19 18 18 19 19 19 20 20 21 21 20 19 20 20 20 19 20
47 47 45 42 41 40 39 38 38 38 38 38 38 37 37 37 37 38 38 38 38 38 39 39 40 39 39 38 37 35 34 34 34 34 35 35 35 33 32 32 30 29 29 29 29 28 28 29 30 31 31 32 32 32 33 32 30 29 29 28 27 25 25 25 25 25 24 23 22 21 20 21 21 21 22 23 23 23 22 22 22 21 21 21 21
48 49 48 45 43 43 41 39 39 40 40 40 41 41 40 39 38 37 36 36 37 37 38 39 40 39 39 40 40 38 36 36 35 35 35 36 35 35 34 32 31 29 28 29 29 28 28 28 28 29 30 33 34 34 35 34 33 32 32 31 30 28 29 30 29 27 26 25 24 23 22 22 24 24 24 26 26 26 26 25 24 23 21 22 22
52 51 50 49 46 44 43 42 41 41 41 42 43 44 43 41 39 37 37 36 36 36 38 39 39 39 40 40 41 40 38 37 37 36 37 37 37 36 35 33 31 30 29 29 28 28 28 28 28 28 29 31 34 34 35 36 35 35 34 33 32 31 33 33 32 31 30 29 29 29 27 27 27 28 28 29 29 29 30 29 28 26 24 24 24
54 52 52 51 50 47 45 45 44 43 43 43 44 45 44 42 40 40 39 39 38 37 37 39 39 40 41 41 41 41 40 39 39 39 39 39 39 38 37 35 33 31 31 30 29 28 28 29 29 29 29 31 32 33 34 35 35 35 34 34 34 35 35 35 34 33 33 32 32 33 33 32 32 32 31 32 32 32 33 33 32 30 28 27 27
54 55 53 52 53 53 51 49 47 46 46 46 45 45 45 43 43 43 43 41 40 38 38 39 40 40 41 41 41 41 40 40 41 40 41 41 41 40 38 36 35 34 33 32 30 29 29 30 30 31 31 32 33 33 33 33 33 33 32 33 35 36 36 35 34 33 33 33 33 33 33 33 33 33 33 33 34 34 34 34 34 33 32 31 31
53 55 55 52 51 53 55 55 53 51 49 48 48 48 47 45 45 45 45 44 43 41 40 41 41 41 41 41 40 41 41 42 41 42 42 43 43 42 41 39 38 38 36 34 32 31 31 32 32 33 34 35 35 35 34 33 32 31 31 32 33 34 34 34 33 33 32 33 33 33 33 33 33 33 34 34 34 34 34 34 34 34 34 34 33
54 54 55 55 52 50 51 53 55 55 53 51 50 50 50 49 47 46 46 46 46 45 44 44 44 42 42 41 40 40 41 41 41 42 43 43 44 44 43 42 42 41 39 37 35 34 34 34 34 35 36 37 38 37 36 34 33 32 32 33 33 33 33 32 32 33 33 33 33 33 33 33 33 33 34 33 33 34 33 33 34 34 34 34 34
56 56 56 57 57 54 51 50 50 52 54 54 53 52 52 51 49 49 49 49 47 47 47 48 47 45 43 42 41 41 41 40 41 42 43 44 44 44 44 45 45 44 43 41 38 37 37 37 37 38 38 39 40 39 37 35 34 33 33 34 33 32 32 32 32 33 33 33 34 33 32 32 31 32 32 32 32 32 33 32 32 32 32 32 33
58 58 58 58 59 59 57 54 52 51 52 52 53 53 53 52 51 52 52 51 49 48 48 48 48 47 46 45 43 43 43 41 40 42 43 44 44 44 45 45 46 46 45 43 41 40 40 40 40 39 40 41 42 40 38 37 35 34 33 33 33 32 31 32 33 33 33 33 33 32 31 30 30 30 31 30 30 31 31 31 31 31 31 31 31
60 60 60 60 59 60 60 58 56 55 54 53 52 52 52 51 51 52 53 52 51 49 47 46 46 45 46 48 49 48 46 43 41 41 42 42 43 45 46 46 46 47 46 44 42 42 42 42 42 42 42 43 42 40 38 36 35 33 32 32 32 31 31 31 31 30 30 31 31 31 30 30 30 30 30 30 30 30 30 31 31 31 31 31 31
63 63 63 61 61 61 61 60 59 58 58 57 55 53 52 51 51 51 52 52 51 50 47 44 44 44 45 49 53 52 46 42 42 42 43 43 44 45 46 46 47 47 47 46 46 45 45 44 43 42 41 40 39 37 35 35 34 32 31 31 30 30 29 29 28 28 28 29 30 30 30 30 30 31 31 31 31 30 30 31 30 30 31 31 31
64 65 65 65 63 62 62 62 62 60 59 59 57 54 53 53 52 51 51 52 51 50 48 44 42 42 42 46 52 51 44 42 45 45 42 42 44 44 43 44 47 48 49 50 47 44 44 43 40 38 36 35 34 34 33 33 33 32 30 30 29 29 28 27 27 27 27 28 29 29 29 29 30 31 32 32 32 31 31 31 31 31 32 32 31
67 66 66 67 66 65 64 64 64 63 62 60 59 56 54 54 52 50 50 51 50 50 49 47 45 43 39 39 44 47 46 45 44 40 37 37 39 40 40 42 46 48 50 50 44 40 40 38 34 32 32 31 31 32 32 32 32 31 30 29 28 27 27 26 26 26 27 28 27 27 27 28 28 30 31 32 32 33 33 33 32 32 33 33 32
72 70 68 67 67 67 66 65 65 65 64 63 62 60 56 54 52 49 49 51 51 50 49 48 49 49 44 40 39 42 46 47 43 39 38 39 38 38 39 42 44 46 49 48 40 34 34 34 30 29 30 30 30 31 31 32 32 30 28 27 26 26 26 25 25 26 27 27 26 26 26 27 27 28 30 31 32 33 34 35 34 34 34 35 34
77 75 73 70 69 68 68 67 66 66 66 65 64 63 60 58 56 52 49 49 51 51 49 47 48 50 49 45 41 38 42 46 46 43 42 42 40 38 40 43 44 44 45 42 33 28 31 34 32 31 31 30 31 31 31 31 31 29 28 26 25 25 25 25 25 26 27 27 27 26 26 26 27 28 29 30 31 32 33 35 36 36 36 37 36
82 80 78 75 72 70 69 68 67 66 67 66 65 64 63 62 61 58 54 51 49 49 48 46 45 47 48 47 45 41 40 43 47 47 44 42 42 42 42 44 45 44 42 37 30 30 34 35 33 34 34 33 33 33 32 31 31 29 28 27 26 25 26 26 26 27 28 28 29 29 28 28 28 29 29 30 30 31 32 33 36 37 37 38 38
87 85 82 80 77 74 72 70 69 68 68 67 66 65 63 62 62 62 60 57 53 49 48 47 46 45 46 46 46 44 41 41 45 47 46 44 45 45 46 46 45 43 41 37 32 32 35 35 34 35 36 36 36 36 36 36 34 31 30 29 28 27 28 28 28 29 29 30 31 31 30 30 30 31 31 32 32 32 32 33 35 36 37 38 39
89 89 87 85 82 80 77 74 72 72 71 70 68 66 63 61 62 63 62 61 58 54 52 51 49 47 47 46 45 45 43 41 42 45 46 47 48 49 49 48 45 43 41 38 34 32 33 33 33 34 35 36 36 37 37 37 36 34 32 31 30 30 31 31 31 31 31 32 33 33 32 32 32 32 33 34 34 34 34 34 35 36 37 38 38
87 90 91 90 87 85 83 80 77 76 74 73 71 69 65 61 60 61 63 62 60 57 55 54 52 50 49 47 46 45 44 43 43 44 45 47 50 52 51 49 46 44 42 40 37 35 35 34 33 33 34 34 35 35 36 36 36 35 34 33 33 33 33 34 34 33 32 33 34 36 36 35 34 34 35 35 35 35 35 36 37 37 38 39 39
84 87 89 92 92 91 88 86 83 80 79 77 75 73 70 65 60 59 60 61 61 59 57 56 55 53 51 50 49 48 47 46 46 45 45 46 49 52 52 51 49 47 45 43 41 40 38 37 36 35 35 35 35 36 36 37 37 37 36 36 37 37 38 37 37 36 35 35 36 38 39 38 37 36 36 36 36 36 37 38 39 39 39 40 40
86 85 86 89 93 94 92 90 87 85 83 81 79 76 74 71 66 62 60 60 61 61 59 58 57 56 54 52 52 52 51 49 48 48 48 47 47 48 50 52 52 50 47 45 44 44 43 41 39 38 37 37 37 38 39 39 39 39 40 40 41 42 42 40 39 38 39 39 39 40 40 40 40 39 39 39 39 39 40 41 42 42 41 41 41
87 87 86 87 89 92 93 92 90 88 86 84 83 80 77 75 73 68 63 61 62 62 62 60 59 58 56 54 53 54 53 51 50 50 50 50 48 47 48 50 51 50 48 47 47 47 47 45 42 40 39 39 40 41 42 42 43 42 43 44 45 44 42 40 39 40 41 41 41 42 43 44 43 42 42 43 43 44 45 45 45 45 44 43 42
84 87 88 88 88 89 91 91 91 89 87 86 85 83 81 78 77 74 69 64 63 64 64 63 61 60 58 55 53 53 54 53 53 53 52 49 47 47 47 47 48 48 48 49 50 51 51 49 46 44 41 41 42 43 44 45 46 45 46 47 47 45 42 40 40 41 42 42 43 45 47 47 46 45 45 46 48 50 51 51 50 48 47 45 43
76 81 86 88 89 89 90 91 90 90 88 87 85 84 83 80 78 78 75 69 65 65 67 66 63 61 60 58 54 53 53 54 55 55 54 51 48 46 46 47 48 49 50 52 53 54 54 52 50 48 45 44 44 45 47 47 47 47 48 49 47 45 43 42 41 41 42 42 43 46 48 49 49 49 49 50 52 54 57 58 56 51 48 47 46
67 73 78 84 88 89 90 91 90 90 89 87 85 83 82 80 78 78 78 74 68 65 66 67 65 62 61 61 57 54 54 54 55 55 55 55 53 50 48 48 49 50 52 53 54 56 57 56 54 51 49 47 47 47 48 49 48 48 49 49 47 45 44 43 43 43 44 44 45 46 47 49 51 52 53 54 55 57 60 62 61 54 48 47 47
60 64 69 75 81 86 90 91 91 90 90 89 86 83 81 79 77 76 76 77 73 68 65 66 66 64 63 62 61 58 56 54 54 55 56 56 56 54 52 51 51 50 50 50 51 52 55 57 57 54 51 49 49 49 49 49 49 49 49 49 48 46 45 45 46 46 47 47 47 48 49 51 53 54 54 55 55 57 59 61 61 58 53 48 45
56 57 61 66 72 79 85 90 92 92 91 90 88 84 80 79 77 74 73 75 76 73 68 66 65 65 64 63 63 61 58 56 54 54 55 55 54 53 52 51 52 51 50 49 49 48 48 52 55 55 52 49 49 49 50 50 49 49 49 49 49 47 47 48 49 49 49 50 51 52 53 53 53 52 52 53 54 54 54 54 55 55 53 50 46
54 53 55 58 63 69 77 83 88 91 92 91 90 87 83 79 77 74 71 72 76 77 74 69 66 65 65 66 65 63 60 58 57 56 55 54 53 52 51 50 51 52 51 50 49 47 45 46 49 51 51 49 48 49 49 49 49 50 50 50 50 49 49 51 52 51 51 52 52 52 51 52 52 52 51 50 51 52 51 51 50 49 49 50 49
51 51 52 53 56 60 66 74 81 87 90 91 91 89 86 82 79 76 73 71 73 77 78 75 71 67 65 66 68 66 62 58 55 54 54 54 53 53 53 51 50 50 50 50 49 48 48 47 47 48 49 48 48 48 49 49 50 51 52 51 51 51 51 53 54 54 53 53 52 51 50 50 51 52 50 49 49 50 51 51 50 48 49 52 51
49 50 51 51 52 53 57 64 72 79 84 88 90 90 88 85 81 79 75 72 72 75 79 79 76 71 67 65 67 68 66 61 56 54 54 54 54 54 54 53 51 50 49 49 49 49 49 49 49 49 50 50 49 49 49 49 51 52 52 53 53 52 52 54 55 55 55 54 52 51 51 51 52 52 51 50 50 50 51 51 50 48 49 50 49
48 48 49 50 49 50 52 57 63 70 76 82 85 86 87 85 83 81 78 74 72 73 77 79 79 76 71 67 65 66 67 65 61 57 56 56 55 55 54 54 52 51 50 50 50 50 49 49 50 50 51 51 51 51 50 50 50 51 52 52 53 53 54 55 56 56 55 54 51 50 50 51 52 51 52 52 52 51 50 50 50 49 49 51 53
44 46 47 48 48 47 48 51 56 62 68 73 77 80 82 83 82 82 80 77 74 72 74 77 79 78 75 70 66 65 66 66 63 60 59 58 57 57 56 55 53 52 51 51 51 51 51 51 51 51 51 52 52 51 50 49 50 50 51 52 52 53 55 56 56 55 54 53 51 50 50 51 52 52 52 53 53 52 51 50 49 49 51 53 54
43 44 45 47 48 47 45 46 49 55 60 65 70 73 76 77 79 80 80 79 76 73 72 75 77 78 76 74 69 66 66 66 64 62 61 60 59 58 58 56 53 53 53 53 52 52 52 52 52 52 52 52 52 51 50 50 49 50 51 51 52 53 54 55 55 55 54 54 52 52 52 52 53 53 53 53 54 54 53 52 51 52 53 55 56
45 45 44 45 47 47 45 44 44 48 53 57 62 66 69 72 74 76 78 79 78 75 73 73 75 76 76 76 73 69 67 66 65 64 63 63 62 60 59 57 55 54 54 53 52 52 52 52 52 52 52 52 52 52 51 50 50 50 50 51 51 52 53 54 54 55 55 55 54 54 54 55 55 56 56 56 56 56 55 55 55 56 56 56 55
Wind_Direction
210 209 207 205 203 202 204 208 211 210 209 210 210 211 211 209 207 207 209 212 214 217 219 221 223 225 227 230 232 234 235 235 236 237 237 235 233 231 228 224 216 207 201 198 196 193 192 193 196 201 204 207 211 213 209 203 202 203 203 206 210 209 209 209 206 205 203 202 208 206 193 165 148 152 164 179 190 197 200 204 210 218 216 214 237
218 216 213 209 206 205 206 209 212 211 210 211 212 213 214 214 213 213 215 216 217 218 220 222 225 228 229 231 232 234 234 236 237 237 238 237 236 234 232 226 217 209 204 202 201 197 192 189 191 196 201 203 206 208 210 210 208 208 210 215 220 221 221 221 217 218 218 218 223 227 232 230 214 193 183 187 198 208 217 222 225 230 231 228 246
225 224 222 218 214 210 209 211 213 213 212 212 213 215 216 216 215 215 218 219 221 221 221 222 225 228 231 232 232 231 232 234 237 239 239 237 235 234 234 228 219 215 213 210 208 205 200 196 193 192 193 197 200 201 205 209 211 212 213 217 223 227 231 233 231 229 228 225 226 230 235 238 236 232 226 218 217 219 225 233 239 246 252 254 262
226 226 227 227 224 220 215 214 215 216 215 213 214 216 217 217 216 216 217 220 222 224 223 223 224 227 230 232 233 230 229 230 234 238 240 237 234 231 231 230 224 220 221 220 218 216 213 209 205 202 198 196 194 193 195 200 205 210 213 216 222 227 232 236 237 239 239 236 235 239 243 246 248 250 248 245 245 242 239 241 246 254 262 264 262
223 225 227 229 230 228 224 221 219 219 218 216 216 217 218 218 218 218 217 218 221 223 223 223 223 224 226 229 231 231 229 229 230 235 238 237 234 230 229 230 227 226 227 227 225 225 225 224 222 220 216 212 205 197 193 193 195 199 205 211 219 226 231 236 239 242 245 246 247 252 257 258 258 260 263 265 265 264 262 259 256 257 261 265 266
223 224 226 229 231 231 230 228 225 223 222 221 219 218 218 219 220 220 219 218 220 222 222 222 221 222 224 225 227 229 230 230 231 233 236 236 235 231 229 230 229 229 231 232 232 231 232 234 236 236 235 232 227 220 211 204 199 196 199 207 217 226 233 239 244 248 252 255 257 260 265 268 267 266 267 271 275 278 279 278 273 269 267 268 272
229 229 230 232 233 233 232 231 229 228 227 226 224 221 220 220 221 221 220 219 220 221 221 221 219 220 222 223 224 225 227 230 232 234 236 238 237 235 233 232 232 232 234 237 238 237 238 240 243 246 246 244 242 239 234 228 222 217 214 219 226 235 242 246 250 256 261 264 266 265 266 268 269 269 269 271 276 282 287 289 287 283 279 278 280
231 233 235 238 238 236 234 233 232 231 231 231 230 227 225 224 224 223 223 221 221 222 221 220 219 219 220 222 222 223 224 226 231 234 236 237 239 238 237 236 237 236 237 239 242 243 244 245 248 250 251 251 249 247 245 240 234 230 226 228 235 243 251 254 258 264 268 273 276 276 275 273 272 273 272 273 277 282 287 293 294 293 290 286 286
230 233 236 239 242 239 237 235 234 234 234 234 234 233 231 229 229 228 227 225 225 225 223 222 220 219 220 221 222 221 221 222 226 232 235 236 238 239 239 240 240 240 240 241 243 246 247 248 250 254 256 255 252 250 249 247 243 239 234 232 235 241 247 252 257 263 268 273 277 281 282 280 278 279 279 277 277 278 281 286 291 296 297 294 292
231 233 235 237 239 240 239 238 237 235 235 235 236 237 236 234 233 233 232 231 230 229 228 226 225 223 221 221 222 222 220 220 222 227 231 233 236 238 239 240 241 241 242 242 243 245 248 248 249 253 256 257 254 250 250 251 251 248 242 237 238 241 245 250 254 258 263 267 272 276 279 281 283 288 292 290 283 278 275 277 284 290 294 294 295
231 232 233 235 238 240 241 242 242 239 237 236 236 237 238 238 237 236 236 236 236 234 232 231 230 228 226 224 224 224 222 221 222 225 229 231 233 236 238 239 240 240 241 242 242 244 246 248 249 251 254 257 256 253 251 252 255 254 250 245 242 243 247 252 256 261 264 267 272 276 279 283 286 290 294 296 296 288 279 277 280 284 288 290 291
234 233 232 233 235 237 239 242 244 244 241 239 237 238 239 240 240 240 240 240 240 240 238 237 235 233 231 229 228 227 225 224 224 227 229 230 232 235 237 239 240 240 241 241 241 243 245 247 249 250 252 255 256 256 253 252 254 257 258 255 250 250 252 257 261 264 268 272 276 279 281 283 287 291 293 296 301 300 293 286 284 284 286 289 289
237 235 234 234 234 234 237 239 242 246 245 243 240 239 240 241 241 242 242 242 243 243 243 243 241 240 238 235 233 231 229 228 228 230 232 233 234 235 237 239 241 242 242 242 243 243 244 246 249 250 251 253 255 256 255 253 253 255 258 259 258 258 259 262 265 266 269 272 278 281 284 287 293 298 302 305 307 309 306 299 293 288 285 286 288
239 238 238 239 237 236 238 239 240 244 247 248 245 242 241 241 242 242 243 244 245 245 245 245 244 244 244 242 240 237 234 232 232 234 235 236 237 238 239 240 241 243 244 245 245 245 245 246 247 249 251 252 255 256 256 255 255 255 256 258 259 260 263 265 267 268 269 271 276 280 286 292 298 302 307 310 310 310 310 308 303 296 291 289 289
243 244 244 244 243 241 240 241 241 243 246 249 250 246 243 242 242 242 243 244 245 245 246 245 245 244 245 245 244 242 240 238 236 237 238 239 240 241 242 243 245 246 247 248 248 247 247 246 246 247 249 251 253 255 255 256 258 258 258 258 258 260 263 266 268 269 270 271 274 278 284 291 296 299 301 302 303 303 305 307 306 302 301 302 298
249 250 249 247 245 242 241 240 241 243 246 248 250 250 247 244 243 242 242 243 244 244 245 247 246 245 245 245 244 245 244 243 242 241 241 242 243 244 246 247 248 250 251 251 250 250 250 249 247 247 248 249 251 254 256 257 258 260 260 259 260 261 264 267 269 272 273 273 274 277 281 286 290 293 295 295 296 297 299 300 301 300 304 307 304
251 251 250 248 247 245 243 241 241 243 246 248 248 248 248 246 243 242 241 241 242 243 244 245 246 246 245 245 244 244 244 245 245 244 245 245 245 246 248 249 250 252 254 255 255 254 254 253 251 249 248 249 250 252 255 257 258 259 260 261 261 263 265 268 270 273 275 276 276 278 280 283 285 287 290 292 292 293 295 295 295 296 300 303 304
250 251 251 250 249 248 247 244 243 244 244 246 247 247 247 247 244 243 243 242 242 242 243 244 245 245 245 246 245 244 243 244 245 246 247 249 249 248 249 249 250 251 253 255 257 257 257 256 255 253 252 250 250 251 254 257 258 259 260 261 262 264 266 268 268 270 273 275 276 276 277 280 282 283 285 287 288 289 291 291 292 293 296 299 301
245 249 251 250 249 249 249 247 246 245 244 243 245 246 248 248 246 246 247 246 245 244 243 244 244 244 244 245 245 245 243 243 245 246 247 249 250 250 249 249 249 249 250 252 254 256 257 257 257 256 255 253 252 252 254 257 259 260 260 261 263 264 266 267 269 271 273 276 277 277 277 278 280 281 282 283 284 285 286 287 288 290 292 294 296
240 244 248 250 249 249 249 249 248 248 246 244 245 247 249 249 248 248 250 250 249 247 244 243 244 245 245 244 244 244 244 244 244 245 246 248 250 250 250 249 248 248 248 248 250 252 254 257 257 258 257 255 253 253 254 256 259 260 261 263 264 264 265 268 271 273 276 278 280 281 281 281 280 279 279 279 280 281 282 283 284 286 287 289 291
239 241 244 248 249 248 248 249 249 249 248 247 248 250 251 251 251 250 250 251 251 250 247 244 243 244 245 245 243 243 243 243 243 244 245 247 249 250 250 250 249 248 246 246 247 248 251 254 256 257 257 257 255 254 254 256 258 261 263 265 266 266 267 270 272 274 276 279 280 281 281 281 280 279 277 276 276 276 278 279 281 283 285 286 287
240 240 242 245 247 247 247 248 249 249 248 249 250 252 253 253 252 251 250 251 252 252 252 250 248 246 246 246 246 245 243 241 241 242 244 246 247 248 249 250 249 249 247 245 245 246 248 250 253 254 256 257 257 256 255 255 257 261 264 265 266 268 269 272 274 276 277 278 279 279 280 280 280 280 278 276 275 274 275 277 279 281 282 282 283
242 241 241 242 244 246 246 247 248 249 250 250 251 252 254 254 255 254 252 252 252 252 251 251 250 249 249 250 249 248 246 244 241 241 241 243 246 247 247 248 249 249 248 246 245 246 247 248 250 252 254 255 256 257 256 256 258 261 263 265 266 268 270 273 276 278 278 277 278 279 279 279 279 278 278 277 277 277 277 278 278 279 279 279 280
241 242 241 240 242 243 243 245 246 248 250 251 252 253 253 253 254 255 254 252 252 251 250 248 248 249 251 251 249 248 248 247 245 243 241 242 244 246 246 247 247 247 247 246 245 245 247 248 249 251 253 254 255 256 257 258 259 261 263 264 266 268 272 275 277 277 277 277 277 277 277 278 278 278 278 278 278 279 279 279 278 278 278 278 279
240 241 241 241 242 243 243 244 244 245 247 250 252 253 253 253 253 255 256 254 253 255 254 250 248 248 250 250 249 248 248 248 247 246 244 242 243 245 246 246 247 247 247 246 245 246 246 247 248 250 252 254 255 256 257 258 259 260 262 265 267 270 273 275 275 274 274 275 275 276 276 276 276 276 276 276 276 276 277 276 277 278 279 279 279
238 239 241 242 244 245 246 247 246 245 246 247 249 251 252 253 253 253 255 256 256 257 257 251 247 248 249 248 248 248 247 246 246 246 245 242 241 243 245 246 247 247 246 246 246 246 246 246 247 249 251 253 254 255 257 258 259 261 263 265 267 269 269 269 269 270 271 272 273 273 274 274 273 273 274 275 274 274 274 275 276 277 278 279 279
239 238 239 240 242 244 246 248 248 247 247 247 248 249 250 252 253 253 255 256 257 258 257 251 248 250 250 246 245 246 244 243 243 244 243 241 241 240 241 244 246 247 247 246 245 245 244 245 245 246 248 251 254 256 259 261 262 263 263 263 263 263 263 264 266 267 269 270 271 271 272 273 274 275 275 274 274 273 273 273 274 275 276 277 278
241 240 239 238 240 241 244 246 247 247 247 247 248 249 250 251 253 254 255 256 256 257 258 255 252 254 254 247 243 243 245 246 246 244 240 238 238 238 238 241 244 245 245 244 242 242 243 243 243 246 249 253 257 260 261 262 263 262 261 261 261 262 263 264 266 268 269 269 270 272 274 276 277 278 278 278 277 275 273 273 272 273 273 274 275
241 241 241 239 239 239 240 243 245 246 247 248 248 249 250 252 253 254 254 255 256 256 256 256 254 254 256 251 244 241 244 246 247 246 241 236 236 237 238 241 244 245 245 243 242 244 247 247 248 251 254 257 260 261 261 261 261 261 261 262 262 264 265 267 268 269 270 271 272 274 276 278 279 280 281 281 281 279 277 275 274 272 272 272 272
239 241 242 241 241 239 239 240 242 244 246 247 247 247 247 248 251 253 253 253 255 255 255 254 252 250 254 257 250 242 239 241 244 244 239 236 238 238 238 241 244 246 247 247 245 245 250 254 256 257 258 259 258 258 259 259 260 260 261 261 263 265 266 268 269 269 270 271 273 275 277 279 281 282 282 283 283 282 281 280 277 275 274 274 273
238 239 240 242 242 242 241 240 241 243 244 245 246 246 245 245 246 247 248 249 252 253 253 253 251 249 251 257 255 243 237 238 240 239 236 238 241 241 239 240 243 244 247 249 247 245 250 256 258 256 256 257 258 258 258 259 259 260 259 259 261 262 264 266 267 268 270 271 272 275 277 279 281 282 283 285 285 285 286 286 284 280 278 278 277
238 238 239 240 242 243 243 242 241 242 243 244 245 245 245 245 245 244 243 244 247 250 250 250 250 251 253 257 256 248 240 239 240 240 240 242 243 244 242 241 241 242 245 248 246 243 246 249 250 250 251 253 256 257 258 258 259 260 259 258 257 259 261 264 266 268 271 274 274 275 275 275 276 278 280 283 285 286 287 288 288 286 284 282 281
239 239 238 239 240 241 243 244 244 243 243 244 245 245 245 245 246 246 246 245 246 247 248 248 248 250 253 255 255 251 247 244 242 241 242 243 243 244 245 243 242 244 246 247 243 238 239 241 243 244 245 246 250 254 257 258 260 260 259 257 257 258 260 262 264 268 271 274 276 277 278 278 278 278 279 280 282 283 285 287 288 288 287 286 285
240 240 239 239 238 239 240 243 244 245 244 244 245 245 245 245 246 247 248 248 247 247 247 248 248 247 248 251 252 250 250 249 244 240 240 241 242 243 244 245 245 247 248 247 242 237 236 236 237 241 245 247 249 252 255 256 257 257 256 255 255 258 260 261 264 268 271 274 277 279 281 282 282 283 283 283 282 282 283 284 286 287 287 287 286
239 240 240 240 239 238 239 240 242 244 246 246 245 245 245 245 246 246 246 247 248 246 245 247 248 245 244 247 250 249 249 250 248 243 241 241 242 242 244 245 247 248 249 250 246 242 241 239 237 239 244 248 250 252 253 255 255 255 255 255 256 258 261 264 266 269 272 275 278 280 280 281 282 284 286 286 286 285 284 283 284 285 286 287 286
240 239 240 241 240 239 239 239 241 242 244 246 247 247 246 245 245 245 245 246 246 245 243 244 245 244 244 246 248 248 247 249 249 247 245 244 243 243 243 244 245 247 249 250 248 245 245 245 243 242 244 246 248 250 252 255 257 259 260 261 263 264 266 267 268 270 272 275 278 279 280 281 283 285 286 286 286 287 287 286 284 283 283 285 285
241 240 239 240 241 241 240 240 241 241 242 243 245 247 247 246 245 245 245 246 245 244 243 242 243 244 244 245 247 246 246 248 248 248 249 248 247 245 244 244 245 246 246 248 249 247 245 245 246 246 247 248 249 251 253 255 258 260 263 264 266 268 268 268 270 274 278 279 279 279 280 281 282 282 282 282 284 286 287 288 288 286 283 282 283
242 241 240 240 240 241 242 242 242 241 241 241 242 244 246 247 246 245 245 246 245 243 242 242 243 243 243 245 246 244 245 247 249 249 249 248 247 246 245 244 245 246 246 246 248 249 247 245 245 246 247 250 251 253 255 257 259 260 263 264 265 266 268 271 276 281 284 284 283 283 283 283 282 282 282 282 283 283 284 286 287 288 287 284 283
244 242 241 240 240 241 242 243 243 242 241 240 240 241 244 246 246 245 244 245 245 244 242 241 242 243 243 245 246 244 244 246 248 248 248 247 246 245 245 244 245 246 245 246 248 250 250 248 246 246 247 249 252 254 256 258 259 261 264 265 266 268 271 276 280 282 282 283 283 283 282 280 280 280 280 281 281 281 281 281 282 284 286 286 285
246 243 242 241 240 241 241 242 243 242 242 241 240 240 241 244 245 246 244 243 244 244 243 241 241 242 242 243 244 244 244 244 245 246 245 245 244 243 243 244 245 245 245 246 249 251 252 250 249 248 248 248 251 254 256 258 260 263 265 266 268 271 274 277 278 279 279 280 280 279 279 278 278 277 278 279 279 280 281 281 281 282 283 284 284
248 246 243 241 240 240 241 241 242 242 242 241 241 240 240 241 243 245 245 243 241 241 242 241 240 241 241 241 242 244 244 243 243 244 244 243 242 242 242 243 244 244 245 247 248 250 251 251 250 249 249 250 251 254 256 259 261 264 266 268 270 272 275 277 278 280 281 281 281 281 283 284 284 284 284 284 283 283 283 282 281 281 280 279 280
249 247 245 242 240 240 240 240 241 242 242 242 241 240 240 240 241 243 244 243 240 238 239 241 240 240 240 240 241 242 242 242 242 243 244 243 243 242 241 241 242 244 245 248 249 249 251 251 250 249 250 251 252 254 257 260 262 265 267 270 272 274 276 278 281 283 283 282 282 284 285 287 288 288 288 288 288 289 288 283 278 275 277 278 278
249 248 246 244 241 239 239 239 240 241 241 242 241 240 239 239 240 241 243 242 239 236 237 240 241 239 238 239 240 240 239 239 239 241 243 243 243 242 240 240 242 244 246 249 250 252 252 251 249 248 250 251 253 255 257 260 262 265 268 271 273 275 276 278 280 282 283 283 284 285 286 286 287 287 287 288 288 289 288 282 275 271 273 276 278
250 249 247 245 243 240 239 238 238 239 240 241 241 240 239 239 239 240 241 241 239 236 235 238 242 240 236 236 238 238 236 235 236 238 240 242 242 241 240 240 242 244 247 248 250 252 253 251 248 247 249 251 251 254 256 259 262 265 268 271 273 275 276 277 278 280 281 282 284 285 286 286 285 284 285 287 287 288 288 285 280 274 270 270 275
250 250 249 247 244 242 239 238 237 238 239 240 241 241 240 239 238 238 239 239 239 237 235 236 240 240 236 234 236 237 235 233 233 235 237 239 239 239 239 239 241 244 247 248 248 249 250 249 246 246 248 249 250 253 257 260 263 265 268 269 271 273 275 276 278 279 280 281 282 282 283 283 283 283 284 286 288 290 291 289 287 281 272 267 273
250 249 249 248 246 243 240 238 237 237 237 239 240 240 240 239 238 238 238 237 238 237 236 236 238 239 236 235 235 236 235 232 230 231 234 236 238 239 239 239 240 242 244 246 246 247 248 248 248 248 250 251 253 255 258 261 264 266 268 269 270 272 274 275 277 279 280 281 282 282 282 281 281 282 284 286 288 290 290 289 288 285 277 271 272
248 248 247 247 247 245 242 238 236 236 236 237 238 239 240 239 238 237 237 237 237 237 237 237 237 238 237 235 235 236 236 233 229 229 232 235 238 240 241 242 242 243 245 246 247 247 248 250 251 253 254 256 257 258 260 262 265 266 268 269 270 271 273 275 276 278 280 281 281 281 281 280 280 281 284 285 286 287 289 289 289 286 279 273 273
247 246 245 244 245 246 244 241 237 235 235 236 237 238 239 239 238 237 236 236 236 236 237 237 237 237 237 236 235 235 236 235 232 230 232 235 238 240 242 244 245 247 248 250 250 251 252 253 254 256 258 259 260 261 262 263 265 266 267 268 270 272 274 275 276 278 279 279 279 278 278 279 280 281 283 285 286 287 288 288 288 285 281 277 276
247 246 243 242 242 244 246 244 240 237 235 235 235 236 237 238 237 237 236 236 236 235 236 237 237 237 236 236 235 234 234 234 233 232 233 235 237 238 240 242 244 246 249 251 253 254 256 257 258 260 261 262 263 264 264 264 265 265 266 268 270 272 274 275 276 278 278 277 277 278 278 279 280 282 283 284 285 286 286 285 285 285 284 282 281
246 245 243 240 239 241 244 245 243 240 237 235 234 234 235 235 235 235 235 235 235 235 235 237 238 237 235 234 234 234 233 233 233 233 234 237 239 238 237 239 241 244 246 249 252 254 256 258 259 261 263 265 266 266 266 266 266 266 267 269 270 271 272 274 275 277 277 277 278 279 280 280 282 282 283 283 284 285 285 284 284 284 284 284 283
244 242 241 239 238 238 240 242 243 241 239 237 235 234 233 233 233 233 233 234 234 235 235 236 238 238 235 233 234 234 234 234 235 235 236 239 241 238 237 238 241 242 244 247 250 252 255 258 259 261 263 265 266 266 266 267 267 267 268 269 269 270 271 272 273 275 276 277 279 280 280 281 282 282 283 284 284 284 284 284 284 283 283 282 282
Height
5926 5928 5930 5932 5934 5936 5938 5939 5941 5943 5944 5946 5947 5948 5949 5951 5952 5953 5954 5955 5956 5957 5959 5960 5961 5962 5963 5964 5964 5965 5966 5967 5968 5968 5969 5970 5970 5971 5971 5972 5972 5973 5973 5974 5974 5974 5974 5975 5975 5976 5976 5977 5978 5978 5979 5980 5981 5981 5982 5983 5983 5983 5984 5984 5985 5985 5986 5987 5987 5987 5987 5988 5988 5988 5989 5989 5989 5989 5988 5988 5988 5988 5988 5987 5986
5927 5928 5929 5930 5932 5933 5935 5937 5939 5941 5942 5944 5945 5946 5948 5949 5951 5952 5953 5954 5955 5956 5958 5959 5960 5961 5962 5963 5964 5964 5965 5966 5967 5968 5969 5969 5970 5971 5971 5972 5972 5973 5973 5974 5974 5974 5974 5975 5975 5976 5976 5977 5977 5978 5979 5979 5980 5981 5982 5982 5983 5983 5983 5984 5984 5985 5985 5986 5986 5987 5987 5987 5988 5988 5988 5988 5988 5988 5988 5988 5987 5987 5987 5987 5986
5927 5929 5930 5931 5931 5932 5933 5935 5936 5938 5940 5942 5943 5944 5946 5947 5949 5951 5952 5953 5954 5955 5957 5958 5959 5960 5961 5962 5963 5963 5964 5965 5966 5966 5967 5968 5969 5970 5971 5972 5972 5973 5973 5974 5974 5974 5974 5975 5975 5975 5976 5976 5977 5977 5978 5979 5980 5980 5981 5982 5982 5982 5983 5983 5983 5984 5985 5985 5985 5986 5986 5986 5987 5987 5987 5987 5987 5987 5987 5987 5987 5986 5986 5985 5985
5925 5927 5929 5931 5931 5932 5933 5933 5934 5936 5938 5940 5941 5942 5944 5945 5947 5949 5950 5952 5953 5954 5955 5957 5958 5959 5960 5961 5962 5962 5963 5964 5965 5965 5966 5967 5968 5969 5970 5971 5972 5973 5973 5974 5974 5974 5975 5975 5975 5975 5976 5976 5976 5977 5978 5978 5979 5980 5980 5981 5981 5982 5982 5982 5983 5983 5984 5984 5984 5985 5985 5985 5986 5986 5986 5986 5986 5986 5986 5986 5985 5985 5985 5984 5984
5922 5924 5926 5928 5930 5932 5933 5933 5934 5935 5936 5937 5938 5940 5941 5943 5945 5946 5948 5949 5950 5952 5953 5955 5956 5957 5958 5959 5960 5961 5962 5963 5964 5964 5965 5966 5967 5968 5969 5970 5971 5972 5972 5973 5974 5974 5974 5975 5975 5975 5975 5976 5976 5977 5977 5978 5979 5979 5980 5980 5981 5981 5981 5981 5982 5982 5983 5983 5984 5984 5984 5984 5985 5985 5985 5984 5984 5984 5984 5984 5984 5984 5983 5983 5983
5919 5921 5923 5925 5928 5930 5932 5933 5933 5933 5934 5935 5936 5937 5939 5941 5943 5944 5945 5947 5948 5949 5951 5952 5954 5955 5956 5957 5958 5959 5961 5962 5963 5963 5964 5965 5965 5966 5967 5968 5969 5970 5971 5972 5973 5973 5974 5974 5975 5975 5975 5976 5976 5976 5977 5977 5978 5979 5979 5980 5980 5980 5980 5981 5981 5982 5982 5982 5983 5983 5983 5983 5983 5983 5983 5983 5983 5983 5983 5982 5982 5982 5982 5981 5981
5918 5919 5921 5923 5925 5927 5929 5931 5932 5932 5932 5933 5934 5936 5937 5939 5940 5941 5943 5944 5945 5947 5948 5950 5952 5953 5954 5955 5956 5958 5959 5960 5961 5962 5963 5964 5964 5965 5966 5967 5967 5968 5969 5970 5971 5972 5973 5974 5974 5974 5975 5975 5976 5976 5976 5977 5978 5978 5979 5979 5979 5979 5980 5980 5980 5980 5981 5981 5981 5982 5982 5982 5982 5982 5982 5982 5981 5981 5981 5981 5981 5980 5980 5980 5979
5915 5917 5919 5921 5923 5924 5926 5928 5929 5930 5931 5931 5933 5934 5936 5937 5938 5939 5941 5942 5943 5945 5946 5947 5949 5950 5952 5953 5954 5956 5957 5959 5960 5961 5962 5963 5963 5964 5965 5965 5966 5967 5968 5969 5970 5971 5972 5973 5973 5973 5974 5975 5975 5976 5976 5976 5977 5977 5978 5978 5978 5978 5978 5979 5979 5979 5979 5979 5980 5980 5980 5980 5980 5980 5980 5980 5980 5980 5979 5979 5979 5979 5978 5978 5978
5912 5914 5916 5919 5920 5921 5923 5924 5926 5927 5928 5930 5931 5932 5934 5935 5937 5938 5940 5941 5942 5943 5944 5945 5947 5948 5950 5951 5952 5954 5955 5957 5958 5959 5960 5961 5961 5962 5963 5964 5965 5965 5966 5967 5968 5969 5970 5971 5972 5972 5973 5973 5974 5975 5975 5976 5976 5976 5977 5977 5977 5977 5977 5977 5978 5978 5978 5978 5978 5978 5978 5978 5978 5978 5978 5978 5978 5978 5978 5978 5977 5977 5977 5976 5976
5909 5911 5914 5916 5916 5918 5919 5921 5923 5924 5925 5927 5928 5930 5931 5933 5935 5937 5938 5939 5940 5941 5942 5943 5945 5946 5947 5949 5950 5951 5953 5955 5956 5957 5957 5958 5959 5960 5961 5962 5963 5964 5965 5966 5967 5967 5968 5969 5970 5970 5971 5972 5972 5973 5974 5974 5975 5975 5976 5976 5976 5976 5976 5976 5976 5976 5977 5977 5977 5977 5977 5976 5976 5976 5976 5977 5977 5977 5977 5976 5976 5975 5975 5975 5974
5907 5909 5911 5912 5913 5915 5916 5918 5919 5920 5922 5924 5925 5927 5928 5930 5932 5934 5936 5937 5938 5939 5941 5942 5943 5944 5945 5947 5948 5949 5951 5953 5954 5954 5955 5956 5957 5957 5958 5959 5960 5961 5962 5963 5964 5965 5966 5967 5968 5968 5969 5970 5970 5971 5972 5973 5973 5974 5974 5974 5975 5974 5974 5974 5975 5975 5975 5975 5975 5975 5975 5975 5974 5974 5975 5975 5975 5975 5975 5974 5974 5974 5973 5973 5973
5903 5905 5906 5907 5909 5911 5913 5914 5916 5917 5919 5920 5922 5924 5925 5927 5930 5932 5933 5934 5936 5937 5939 5940 5941 5942 5943 5945 5946 5947 5949 5950 5951 5952 5952 5953 5954 5955 5955 5956 5957 5959 5960 5961 5962 5963 5964 5965 5965 5966 5967 5967 5968 5969 5970 5971 5971 5971 5972 5973 5973 5973 5973 5973 5973 5973 5974 5974 5974 5973 5973 5973 5973 5973 5973 5973 5973 5973 5973 5973 5972 5972 5971 5971 5971
5899 5900 5901 5902 5904 5906 5908 5910 5912 5914 5915 5917 5918 5920 5922 5924 5927 5928 5930 5931 5932 5935 5936 5938 5940 5941 5942 5943 5945 5946 5947 5948 5949 5950 5950 5951 5952 5952 5953 5954 5955 5956 5957 5958 5959 5960 5961 5962 5963 5965 5965 5965 5966 5967 5968 5968 5969 5969 5970 5971 5971 5972 5972 5972 5972 5972 5972 5972 5972 5972 5972 5972 5972 5972 5972 5972 5971 5971 5971 5970 5970 5970 5969 5968 5968
5894 5895 5897 5900 5902 5904 5905 5907 5909 5910 5912 5914 5915 5916 5918 5920 5922 5924 5926 5927 5929 5931 5933 5935 5937 5939 5940 5942 5943 5944 5945 5946 5947 5948 5948 5949 5950 5950 5951 5952 5952 5953 5955 5956 5957 5958 5959 5960 5961 5962 5963 5964 5964 5965 5966 5966 5966 5967 5968 5969 5969 5970 5970 5970 5970 5970 5970 5970 5970 5970 5970 5970 5970 5970 5970 5970 5969 5969 5968 5968 5967 5967 5966 5966 5965
5889 5892 5896 5898 5900 5902 5903 5904 5905 5907 5909 5911 5912 5913 5914 5916 5917 5919 5921 5923 5925 5927 5929 5931 5933 5935 5937 5939 5941 5942 5944 5945 5945 5946 5946 5947 5948 5948 5949 5950 5951 5952 5953 5953 5954 5955 5956 5957 5958 5960 5960 5961 5962 5963 5963 5964 5964 5965 5966 5967 5967 5968 5968 5968 5968 5968 5968 5968 5969 5969 5968 5968 5968 5968 5968 5967 5967 5966 5966 5966 5965 5964 5964 5964 5963
5884 5889 5893 5895 5896 5898 5899 5900 5902 5904 5905 5907 5909 5910 5911 5912 5912 5913 5915 5918 5920 5923 5925 5927 5929 5931 5933 5935 5937 5939 5941 5942 5943 5943 5944 5944 5945 5946 5947 5949 5950 5950 5951 5951 5952 5953 5954 5954 5956 5957 5958 5959 5960 5961 5961 5961 5962 5963 5964 5965 5965 5966 5966 5966 5966 5965 5965 5966 5967 5967 5967 5966 5966 5966 5965 5965 5964 5964 5964 5964 5963 5962 5962 5962 5961
5881 5884 5888 5890 5892 5893 5894 5896 5898 5900 5901 5903 5904 5906 5906 5907 5907 5908 5910 5912 5915 5919 5921 5923 5925 5927 5929 5930 5933 5935 5937 5939 5940 5941 5941 5941 5942 5943 5945 5946 5947 5948 5949 5949 5950 5951 5952 5952 5953 5954 5955 5956 5957 5958 5958 5958 5960 5961 5962 5962 5963 5963 5964 5964 5963 5963 5963 5963 5964 5965 5964 5964 5964 5963 5962 5962 5961 5961 5961 5961 5960 5959 5959 5959 5958
5878 5880 5883 5885 5887 5889 5890 5892 5895 5896 5897 5898 5899 5901 5901 5902 5904 5904 5906 5908 5911 5914 5917 5919 5921 5923 5925 5926 5928 5930 5933 5935 5936 5937 5938 5938 5939 5941 5942 5943 5944 5945 5946 5947 5947 5949 5949 5950 5950 5951 5952 5953 5954 5954 5955 5955 5957 5958 5959 5959 5960 5961 5962 5961 5961 5961 5961 5961 5962 5962 5962 5962 5961 5961 5960 5959 5958 5958 5958 5958 5957 5957 5957 5956 5956
5875 5876 5878 5881 5883 5884 5886 5889 5891 5892 5893 5894 5895 5895 5897 5899 5902 5903 5904 5905 5907 5910 5912 5914 5916 5918 5920 5922 5924 5926 5928 5930 5932 5933 5934 5934 5935 5937 5938 5939 5941 5942 5943 5944 5944 5946 5946 5947 5947 5948 5949 5950 5950 5951 5952 5952 5953 5955 5955 5956 5958 5959 5959 5957 5957 5958 5958 5959 5959 5959 5959 5959 5959 5958 5957 5956 5956 5955 5955 5954 5954 5954 5954 5953 5952
5871 5872 5874 5876 5878 5880 5882 5884 5886 5887 5888 5889 5890 5891 5892 5896 5899 5901 5902 5902 5903 5905 5907 5909 5911 5913 5915 5917 5919 5921 5924 5926 5927 5929 5929 5930 5931 5932 5934 5935 5937 5938 5939 5940 5941 5942 5943 5943 5944 5945 5946 5946 5946 5948 5948 5949 5950 5951 5951 5953 5955 5956 5955 5954 5954 5955 5955 5956 5956 5956 5956 5956 5955 5955 5954 5953 5953 5952 5951 5951 5950 5950 5951 5950 5949
5866 5868 5869 5871 5874 5876 5878 5879 5881 5882 5883 5885 5886 5887 5889 5893 5895 5896 5897 5898 5900 5902 5903 5904 5906 5908 5910 5911 5913 5916 5918 5921 5922 5924 5925 5925 5927 5928 5929 5932 5933 5934 5935 5936 5937 5939 5940 5940 5941 5942 5942 5942 5942 5943 5945 5946 5946 5947 5948 5950 5951 5951 5951 5951 5951 5952 5952 5953 5953 5952 5952 5952 5951 5951 5950 5950 5949 5948 5947 5947 5947 5947 5947 5946 5946
5859 5862 5864 5866 5868 5871 5873 5874 5876 5877 5879 5881 5883 5884 5886 5888 5889 5890 5891 5894 5896 5899 5900 5901 5902 5905 5906 5907 5909 5911 5913 5915 5917 5918 5920 5921 5922 5923 5925 5927 5929 5929 5930 5932 5933 5935 5936 5937 5937 5938 5938 5938 5938 5939 5941 5942 5943 5944 5945 5946 5947 5946 5947 5947 5947 5948 5949 5949 5948 5948 5948 5947 5947 5946 5946 5945 5944 5944 5943 5943 5943 5943 5943 5942 5942
5853 5856 5858 5860 5862 5864 5866 5868 5870 5872 5874 5876 5878 5879 5881 5883 5883 5884 5886 5889 5892 5894 5896 5897 5899 5901 5903 5904 5905 5907 5909 5910 5911 5913 5914 5915 5916 5918 5920 5922 5923 5924 5925 5928 5929 5930 5931 5932 5933 5933 5933 5934 5934 5934 5936 5938 5939 5941 5941 5942 5942 5942 5942 5943 5944 5945 5945 5945 5944 5944 5943 5943 5942 5942 5941 5940 5940 5939 5939 5939 5939 5938 5938 5938 5937
5847 5849 5852 5854 5856 5857 5859 5862 5864 5866 5869 5870 5872 5874 5875 5877 5879 5879 5881 5883 5886 5888 5890 5892 5894 5897 5899 5900 5901 5902 5903 5905 5907 5907 5909 5910 5911 5912 5914 5916 5917 5918 5920 5922 5924 5925 5926 5927 5928 5928 5928 5929 5929 5930 5932 5934 5936 5937 5937 5937 5938 5938 5938 5940 5940 5940 5940 5940 5940 5939 5938 5938 5937 5937 5936 5936 5935 5935 5934 5934 5934 5934 5933 5933 5933
5840 5843 5845 5847 5849 5851 5853 5855 5857 5859 5862 5864 5866 5868 5869 5872 5874 5875 5875 5877 5880 5882 5885 5887 5889 5892 5894 5896 5897 5897 5898 5900 5901 5902 5903 5904 5905 5907 5909 5910 5911 5913 5915 5917 5919 5920 5920 5921 5921 5922 5923 5924 5924 5925 5927 5930 5931 5932 5933 5933 5933 5934 5935 5936 5936 5935 5935 5935 5934 5934 5933 5933 5932 5932 5931 5931 5931 5930 5929 5929 5929 5929 5929 5929 5929
5833 5836 5838 5841 5843 5844 5846 5848 5850 5853 5855 5857 5859 5861 5863 5866 5869 5870 5870 5872 5874 5877 5879 5881 5883 5886 5888 5890 5892 5892 5892 5893 5895 5896 5898 5899 5900 5902 5903 5904 5905 5906 5908 5911 5913 5914 5914 5914 5915 5916 5917 5918 5919 5921 5923 5925 5927 5928 5929 5929 5929 5930 5930 5930 5930 5930 5930 5930 5929 5929 5928 5928 5927 5927 5926 5926 5926 5925 5924 5924 5924 5924 5924 5924 5924
5824 5828 5831 5833 5836 5838 5839 5842 5844 5846 5847 5849 5852 5855 5857 5860 5862 5864 5865 5867 5869 5871 5873 5875 5877 5879 5882 5883 5883 5882 5883 5886 5889 5890 5891 5892 5893 5894 5896 5897 5899 5900 5903 5905 5906 5906 5906 5907 5908 5910 5911 5912 5914 5917 5920 5921 5922 5923 5924 5924 5924 5925 5925 5925 5925 5926 5926 5925 5925 5924 5924 5923 5922 5922 5922 5921 5921 5921 5920 5920 5920 5919 5919 5918 5918
5816 5819 5822 5826 5829 5831 5833 5835 5837 5839 5841 5842 5845 5848 5851 5853 5856 5858 5860 5861 5864 5866 5867 5870 5872 5873 5874 5874 5873 5874 5879 5884 5885 5885 5883 5883 5884 5886 5889 5891 5892 5894 5896 5896 5896 5897 5899 5901 5903 5905 5907 5910 5912 5915 5916 5917 5917 5918 5919 5919 5919 5920 5920 5920 5921 5921 5921 5921 5920 5920 5920 5919 5918 5918 5917 5917 5917 5917 5916 5915 5915 5915 5914 5913 5913
5808 5810 5813 5817 5820 5824 5826 5828 5830 5832 5834 5836 5839 5842 5845 5847 5850 5853 5855 5856 5858 5860 5862 5864 5867 5867 5865 5864 5865 5871 5878 5880 5879 5878 5878 5879 5879 5880 5883 5885 5886 5887 5887 5887 5889 5893 5896 5898 5901 5904 5905 5908 5909 5911 5912 5912 5912 5913 5914 5914 5915 5915 5915 5916 5917 5917 5916 5916 5916 5916 5916 5915 5915 5914 5913 5912 5913 5912 5911 5911 5911 5910 5909 5909 5909
5800 5803 5805 5808 5811 5815 5819 5821 5822 5824 5827 5829 5832 5835 5838 5840 5843 5847 5850 5850 5852 5854 5856 5859 5860 5861 5860 5860 5862 5868 5872 5872 5872 5874 5877 5878 5876 5875 5877 5879 5880 5880 5881 5882 5888 5894 5896 5897 5901 5902 5903 5904 5905 5906 5907 5908 5908 5909 5909 5910 5910 5911 5911 5912 5912 5912 5912 5912 5912 5912 5912 5911 5911 5910 5909 5908 5908 5908 5907 5907 5907 5906 5905 5904 5904
5792 5795 5797 5800 5802 5806 5809 5813 5815 5817 5819 5822 5825 5828 5831 5833 5835 5839 5842 5844 5845 5848 5850 5853 5854 5854 5855 5857 5859 5862 5864 5865 5866 5869 5871 5871 5870 5870 5871 5872 5873 5874 5875 5878 5887 5895 5896 5895 5897 5898 5898 5899 5901 5901 5902 5902 5903 5904 5905 5905 5906 5906 5907 5907 5907 5907 5907 5907 5908 5908 5908 5907 5907 5906 5905 5904 5904 5904 5903 5902 5902 5902 5901 5899 5899
5783 5787 5789 5792 5795 5798 5801 5804 5807 5809 5811 5814 5817 5820 5824 5827 5828 5831 5834 5836 5838 5841 5844 5847 5848 5848 5849 5852 5854 5856 5858 5859 5860 5862 5864 5864 5864 5865 5866 5866 5867 5868 5870 5876 5886 5893 5892 5890 5891 5892 5892 5894 5895 5896 5897 5897 5898 5899 5900 5901 5901 5902 5902 5903 5903 5902 5902 5903 5903 5904 5904 5903 5903 5902 5901 5900 5900 5900 5899 5898 5897 5897 5897 5896 5895
5773 5777 5780 5783 5786 5790 5793 5795 5799 5802 5804 5807 5809 5813 5816 5820 5822 5824 5827 5829 5831 5834 5836 5840 5843 5844 5844 5846 5848 5851 5852 5853 5854 5856 5858 5859 5860 5860 5861 5861 5862 5863 5867 5874 5882 5886 5885 5885 5886 5886 5887 5889 5890 5891 5892 5893 5893 5894 5895 5896 5897 5897 5897 5898 5898 5898 5898 5898 5898 5899 5899 5899 5898 5898 5897 5897 5896 5895 5895 5894 5892 5891 5891 5891 5891
5761 5766 5770 5774 5778 5781 5785 5787 5790 5793 5796 5799 5802 5805 5809 5813 5815 5817 5819 5821 5824 5827 5830 5833 5836 5839 5840 5841 5842 5845 5847 5847 5849 5850 5852 5854 5855 5855 5855 5856 5857 5860 5864 5870 5876 5878 5878 5880 5882 5882 5882 5884 5885 5886 5887 5888 5889 5890 5891 5892 5892 5892 5892 5892 5892 5893 5893 5893 5893 5893 5894 5893 5893 5892 5892 5892 5891 5890 5890 5889 5887 5886 5886 5886 5886
5750 5754 5759 5764 5768 5772 5776 5779 5782 5785 5788 5791 5794 5797 5801 5805 5808 5810 5812 5814 5817 5821 5824 5826 5829 5831 5834 5836 5837 5839 5841 5842 5844 5845 5847 5848 5849 5849 5849 5851 5854 5856 5859 5863 5868 5870 5872 5874 5876 5877 5878 5879 5880 5881 5882 5883 5883 5885 5886 5886 5887 5887 5887 5887 5887 5887 5888 5888 5887 5888 5888 5888 5888 5887 5886 5886 5886 5885 5885 5884 5882 5881 5880 5880 5880
5740 5743 5748 5751 5756 5761 5766 5770 5773 5777 5780 5782 5786 5790 5793 5797 5800 5802 5805 5808 5811 5814 5817 5819 5821 5824 5826 5829 5831 5833 5834 5836 5838 5840 5841 5843 5843 5843 5844 5847 5849 5851 5854 5857 5860 5863 5865 5867 5869 5871 5872 5874 5875 5876 5877 5877 5878 5879 5880 5880 5880 5880 5880 5880 5881 5881 5883 5883 5883 5882 5882 5883 5883 5882 5882 5881 5880 5880 5879 5878 5877 5876 5875 5874 5873
5730 5734 5738 5741 5744 5748 5754 5759 5763 5768 5771 5775 5778 5781 5785 5789 5793 5796 5798 5801 5804 5807 5810 5812 5814 5817 5819 5822 5824 5826 5827 5829 5832 5834 5836 5837 5838 5839 5840 5842 5843 5845 5848 5851 5854 5856 5858 5860 5862 5864 5865 5867 5869 5870 5870 5871 5872 5873 5873 5874 5874 5873 5873 5873 5874 5876 5878 5878 5878 5877 5877 5877 5878 5877 5876 5875 5875 5874 5873 5872 5871 5870 5870 5868 5868
5720 5724 5728 5731 5733 5736 5741 5747 5753 5757 5762 5766 5770 5773 5776 5780 5785 5789 5791 5794 5796 5800 5803 5805 5806 5809 5812 5814 5816 5818 5820 5823 5825 5828 5829 5831 5832 5834 5835 5836 5837 5839 5842 5845 5848 5850 5852 5854 5855 5857 5859 5860 5862 5863 5864 5865 5866 5867 5867 5868 5867 5866 5867 5869 5872 5873 5873 5872 5872 5872 5872 5871 5871 5871 5870 5870 5869 5868 5867 5866 5865 5864 5863 5863 5863
5707 5712 5717 5721 5723 5726 5730 5735 5740 5745 5750 5755 5760 5765 5768 5771 5775 5780 5784 5787 5789 5792 5796 5798 5800 5802 5806 5808 5809 5811 5814 5817 5819 5821 5822 5824 5826 5828 5829 5830 5832 5834 5837 5839 5841 5843 5845 5847 5849 5851 5852 5854 5856 5857 5858 5859 5860 5861 5861 5860 5860 5861 5864 5867 5868 5867 5866 5866 5866 5866 5865 5864 5864 5864 5863 5863 5863 5861 5860 5859 5858 5857 5856 5856 5857
5694 5699 5705 5709 5713 5716 5718 5722 5727 5733 5739 5744 5750 5755 5759 5762 5766 5770 5775 5780 5783 5785 5787 5791 5793 5796 5799 5801 5802 5803 5807 5810 5813 5814 5816 5817 5819 5821 5823 5825 5827 5829 5831 5833 5834 5836 5838 5840 5842 5844 5846 5848 5849 5850 5851 5852 5853 5854 5854 5853 5853 5856 5860 5862 5861 5859 5859 5860 5859 5858 5857 5857 5856 5856 5856 5856 5856 5854 5851 5850 5850 5850 5849 5848 5849
5680 5685 5690 5696 5701 5705 5708 5711 5715 5720 5726 5732 5738 5744 5749 5754 5757 5760 5765 5771 5776 5778 5780 5783 5787 5789 5791 5794 5796 5797 5799 5802 5805 5807 5809 5811 5813 5815 5817 5819 5821 5823 5825 5826 5828 5829 5831 5833 5835 5837 5839 5841 5842 5843 5844 5845 5847 5847 5847 5846 5848 5851 5854 5854 5854 5854 5853 5853 5852 5851 5850 5850 5849 5849 5850 5850 5849 5848 5845 5841 5841 5841 5841 5840 5840
5668 5672 5676 5682 5688 5693 5697 5700 5704 5709 5714 5720 5726 5732 5738 5743 5747 5750 5755 5761 5767 5770 5772 5775 5779 5782 5784 5787 5788 5790 5792 5795 5797 5800 5802 5805 5806 5808 5811 5813 5814 5816 5818 5820 5822 5823 5825 5826 5829 5830 5832 5833 5835 5837 5838 5839 5840 5841 5840 5840 5842 5845 5846 5846 5846 5846 5844 5843 5844 5844 5844 5843 5843 5843 5843 5842 5842 5840 5838 5834 5833 5833 5834 5833 5832
5658 5661 5665 5669 5674 5679 5684 5689 5694 5697 5701 5707 5713 5720 5727 5732 5736 5740 5745 5751 5757 5762 5764 5767 5770 5773 5777 5779 5781 5783 5785 5787 5789 5792 5795 5797 5799 5801 5804 5806 5808 5810 5812 5814 5815 5817 5818 5819 5821 5824 5825 5827 5829 5830 5832 5832 5833 5834 5834 5834 5835 5837 5839 5839 5839 5837 5836 5835 5836 5837 5837 5837 5837 5837 5835 5834 5833 5832 5829 5827 5826 5827 5827 5826 5825
5649 5652 5654 5657 5661 5666 5672 5677 5682 5686 5690 5695 5701 5708 5715 5721 5726 5730 5735 5740 5746 5752 5756 5759 5761 5765 5768 5771 5773 5775 5778 5780 5782 5785 5788 5791 5793 5795 5797 5799 5801 5803 5805 5807 5809 5810 5811 5812 5814 5817 5819 5821 5822 5824 5825 5826 5826 5827 5827 5827 5827 5829 5831 5831 5831 5830 5829 5828 5828 5829 5829 5829 5829 5829 5828 5826 5824 5822 5820 5818 5817 5818 5818 5818 5818
5641 5643 5645 5647 5650 5654 5659 5664 5669 5674 5679 5684 5689 5696 5703 5709 5715 5720 5725 5729 5734 5741 5746 5750 5753 5756 5759 5762 5765 5768 5770 5773 5775 5778 5781 5784 5786 5788 5790 5792 5794 5796 5798 5800 5802 5803 5805 5806 5808 5811 5813 5815 5816 5817 5818 5819 5819 5819 5820 5820 5820 5822 5823 5823 5823 5823 5822 5821 5821 5822 5822 5822 5821 5820 5820 5819 5817 5814 5812 5810 5809 5809 5809 5809 5808
5632 5635 5636 5638 5640 5644 5648 5652 5657 5662 5667 5672 5678 5684 5690 5697 5703 5709 5714 5719 5724 5729 5735 5740 5744 5747 5751 5753 5756 5759 5762 5765 5768 5770 5773 5776 5779 5781 5783 5785 5787 5789 5791 5793 5795 5796 5798 5800 5802 5804 5806 5808 5810 5811 5811 5812 5812 5812 5812 5812 5813 5814 5815 5815 5815 5815 5815 5814 5813 5814 5815 5814 5813 5812 5812 5812 5810 5807 5805 5803 5802 5803 5802 5801 5800
5624 5626 5628 5630 5632 5635 5638 5641 5645 5650 5655 5660 5666 5672 5678 5685 5691 5698 5704 5709 5714 5719 5724 5729 5734 5738 5742 5745 5748 5751 5754 5757 5760 5763 5765 5768 5771 5773 5776 5778 5780 5782 5784 5786 5787 5789 5791 5793 5794 5796 5798 5800 5802 5803 5804 5805 5805 5805 5805 5805 5806 5807 5808 5807 5807 5807 5807 5807 5806 5806 5806 5805 5805 5805 5805 5804 5802 5800 5799 5797 5796 5796 5795 5794 5794
5616 5618 5620 5622 5624 5627 5629 5632 5635 5639 5643 5648 5654 5660 5666 5673 5679 5686 5693 5698 5703 5708 5713 5718 5723 5728 5733 5736 5739 5742 5746 5749 5752 5755 5758 5761 5763 5766 5768 5771 5772 5774 5776 5778 5779 5781 5783 5785 5787 5788 5790 5791 5793 5794 5796 5797 5797 5797 5797 5798 5798 5799 5799 5799 5799 5799 5799 5799 5799 5798 5798 5797 5797 5797 5797 5796 5795 5794 5793 5791 5790 5790 5789 5789 5789
5609 5610 5612 5615 5617 5619 5621 5624 5626 5629 5633 5637 5642 5648 5654 5660 5667 5674 5681 5687 5692 5697 5702 5707 5712 5718 5723 5728 5731 5734 5738 5741 5744 5748 5750 5753 5756 5758 5761 5763 5765 5767 5769 5770 5772 5774 5776 5777 5779 5780 5782 5783 5784 5786 5787 5789 5789 5790 5790 5790 5791 5791 5790 5790 5791 5791 5791 5791 5791 5791 5791 5790 5790 5790 5789 5788 5787 5787 5786 5785 5785 5784 5783 5782 5782
5602 5603 5605 5607 5610 5612 5614 5616 5618 5620 5623 5627 5631 5636 5642 5648 5655 5662 5668 5674 5680 5686 5692 5696 5701 5707 5713 5718 5722 5726 5729 5733 5736 5740 5743 5745 5748 5750 5753 5755 5757 5759 5761 5763 5765 5767 5768 5770 5772 5773 5774 5775 5776 5778 5779 5780 5781 5782 5783 5783 5783 5783 5783 5782 5782 5782 5782 5782 5783 5783 5783 5782 5782 5782 5781 5780 5779 5779 5778 5778 5777 5776 5775 5773 5772
5594 5596 5598 5600 5602 5605 5607 5609 5611 5613 5615 5618 5622 5627 5632 5637 5643 5649 5656 5663 5670 5676 5682 5686 5691 5696 5702 5708 5713 5717 5721 5725 5728 5732 5735 5737 5740 5742 5745 5748 5750 5752 5754 5756 5758 5760 5762 5763 5764 5766 5767 5768 5769 5770 5771 5772 5773 5774 5775 5775 5775 5775 5775 5775 5775 5774 5774 5774 5774 5775 5774 5774 5773 5772 5772 5771 5771 5770 5769 5769 5768 5767 5765 5764 5763